Location: Linz
(48.3300°N, 14.3000°E)
Time: 17:54:44
(UTC+01:00)

Envisat - Pass Details

Date: 16 November 2017
Orbit: 764 x 766 km, 98.2° (Epoch: 24 November)

Event Time Altitude Azimuth Distance (km) Brightness Sun altitude
Exits shadow 20:00:49 15° 339° (NNW) 1,969 5.4 -36.0°
Drops below altitude 10° 20:01:42 10° 341° (NNW) 2,313 5.8 -36.1°
Sets 20:04:03 0° 344° (NNW) 3,244 6.6 -36.5°
